Cortland, IL

2:27 PM CST on December 10, 2016 (GMT -0600)
De Kalb Taylor Municipal

Weather History for KDKB - November, 2012

Change the Weather History Date:

Monday, November 5, 2012

  Actual Average (KARR) Record (KARR)
Temperature  
Mean Temperature 36 °F -  
Max Temperature 44 °F 50 °F 71 °F (2008)
Min Temperature 28 °F 31 °F 17 °F (2010)
Degree Days  
Heating Degree Days 29    
Moisture  
Dew Point 30 °F    
Average Humidity 79    
Maximum Humidity 93    
Minimum Humidity 62    
Precipitation  
Precipitation 0.00 in - - ()
Sea Level Pressure  
Sea Level Pressure 30.16 in    
Wind  
Wind Speed 3 mph (East)    
Max Wind Speed 10 mph    
Max Gust Speed -    
Visibility 8 miles    
Events Fog    
Averages and records for this station are not official NWS values.
T = Trace of Precipitation, MM = Missing Value Source: NWS Daily Summary

Daily Weather History Graph

Daily Weather History Graph

Search for Another Location

Airport or City:

Trip Planner

Search our weather history database for the weather conditions in past years. The results will help you decide how hot, cold, wet, or windy it might be!

Date:

Astronomy

Nov. 05, 2012 Rise Set
Actual Time 6:32 AM CST 4:43 PM CST
Civil Twilight 6:03 AM CST 5:12 PM CST
Nautical Twilight 5:30 AM CST 5:45 PM CST
Astronomical Twilight 4:57 AM CST 6:18 PM CST
Moon 10:20 PM CST (11/5) 11:52 AM CST (11/5)
Length of Visible Light 11h 09m
Length of Day
10h 10m
Waning Gibbous, 62% of the Moon is Illuminated
Nov 5
Waning Gibbous
Nov 6
Last Quarter
Nov 13
New
Nov 20
First Quarter
Nov 28
Full

Hourly Weather History & Observations

Time (CST) Temp. Windchill Dew Point Humidity Pressure Visibility Wind Dir Wind Speed Gust Speed Precip Events Conditions
12:15 AM 30.4 °F - 27.7 °F 90% 30.19 in 4.0 mi Calm Calm - N/A   Clear
12:35 AM 31.6 °F 28.3 °F 29.1 °F 90% 30.19 in 2.5 mi NE 3.5 mph - N/A   Clear
12:55 AM 31.1 °F 27.7 °F 28.9 °F 92% 30.19 in 1.5 mi ENE 3.5 mph - N/A   Mist
1:15 AM 30.9 °F 26.2 °F 28.4 °F 90% 30.19 in 2.5 mi NE 4.6 mph - N/A   Clear
1:35 AM 29.3 °F - 27.0 °F 91% 30.19 in 1.2 mi Calm Calm - N/A   Mist
1:55 AM 30.2 °F - 28.4 °F 93% 30.19 in 0.2 mi Calm Calm - N/A Fog Light Freezing Fog
2:15 AM 29.3 °F - 26.8 °F 90% 30.19 in 0.2 mi Calm Calm - N/A Fog Light Freezing Fog
2:55 AM 30.2 °F - 28.0 °F 92% 30.19 in 0.2 mi Calm Calm - N/A Fog Light Freezing Fog
3:15 AM 29.8 °F - 27.5 °F 91% 30.19 in 1.2 mi Calm Calm - N/A   Mist
3:35 AM 31.6 °F 27.0 °F 29.3 °F 91% 30.18 in 3.0 mi NE 4.6 mph - N/A   Clear
3:55 AM 30.4 °F 26.9 °F 28.0 °F 91% 30.18 in 4.0 mi NNE 3.5 mph - N/A   Clear
4:15 AM 29.3 °F 25.6 °F 27.0 °F 91% 30.19 in 4.0 mi North 3.5 mph - N/A   Clear
4:35 AM 29.1 °F 24.1 °F 26.8 °F 91% 30.19 in 5.0 mi North 4.6 mph - N/A   Clear
4:55 AM 29.3 °F 25.6 °F 26.8 °F 90% 30.19 in 7.0 mi NNE 3.5 mph - N/A   Clear
5:15 AM 29.1 °F 24.1 °F 26.8 °F 91% 30.18 in 7.0 mi NNE 4.6 mph - N/A   Clear
5:35 AM 29.1 °F 23.0 °F 26.6 °F 90% 30.18 in 7.0 mi NNE 5.8 mph - N/A   Clear
6:15 AM 29.1 °F 24.1 °F 26.6 °F 90% 30.17 in 7.0 mi NNE 4.6 mph - N/A   Clear
6:35 AM 28.4 °F 23.3 °F 25.7 °F 90% 30.18 in 5.0 mi NNE 4.6 mph - N/A   Scattered Clouds
6:55 AM 29.1 °F 23.0 °F 26.6 °F 90% 30.18 in 5.0 mi NE 5.8 mph - N/A   Mostly Cloudy
7:15 AM 29.1 °F 23.0 °F 26.6 °F 90% 30.18 in 7.0 mi NNE 5.8 mph - N/A   Mostly Cloudy
7:35 AM 30.2 °F 25.4 °F 27.5 °F 90% 30.19 in 7.0 mi NE 4.6 mph - N/A   Mostly Cloudy
7:55 AM 32.2 °F 27.7 °F 29.7 °F 90% 30.18 in 10.0 mi NNE 4.6 mph - N/A   Overcast
8:15 AM 33.8 °F 29.6 °F 31.1 °F 90% 30.18 in 10.0 mi NE 4.6 mph - N/A   Overcast
8:35 AM 35.4 °F 31.5 °F 32.0 °F 87% 30.18 in 10.0 mi ENE 4.6 mph - N/A   Overcast
8:55 AM 37.6 °F 35.1 °F 34.0 °F 87% 30.19 in 10.0 mi ENE 3.5 mph - N/A   Overcast
9:35 AM 40.5 °F 37.3 °F 35.2 °F 82% 30.19 in 10.0 mi NE 4.6 mph - N/A   Overcast
9:55 AM 41.7 °F 36.7 °F 36.0 °F 80% 30.19 in 10.0 mi ENE 8.1 mph - N/A   Overcast
10:15 AM 42.3 °F 37.9 °F 34.7 °F 75% 30.19 in 10.0 mi ENE 6.9 mph - N/A   Overcast
10:35 AM 42.8 °F 39.3 °F 34.7 °F 73% 30.19 in 10.0 mi NE 5.8 mph - N/A   Overcast
10:55 AM 43.7 °F 38.1 °F 33.1 °F 66% 30.19 in 10.0 mi East 10.4 mph - N/A   Overcast
11:15 AM 43.7 °F 38.6 °F 32.9 °F 66% 30.18 in 10.0 mi NE 9.2 mph - N/A   Overcast
11:35 AM 43.7 °F - 32.0 °F 63% 30.17 in 10.0 mi Calm Calm - N/A   Overcast
11:55 AM 43.9 °F 41.3 °F 32.0 °F 63% 30.16 in 10.0 mi NE 4.6 mph - N/A   Overcast
12:15 PM 44.2 °F 41.8 °F 31.8 °F 62% 30.16 in 10.0 mi East 4.6 mph - N/A   Overcast
12:55 PM 44.1 °F 41.5 °F 31.8 °F 62% 30.16 in 10.0 mi SE 4.6 mph - N/A   Overcast
1:15 PM 43.9 °F 41.3 °F 32.4 °F 64% 30.15 in 10.0 mi SSE 4.6 mph - N/A   Overcast
1:35 PM 43.9 °F 41.3 °F 32.0 °F 63% 30.15 in 10.0 mi SE 4.6 mph - N/A   Overcast
1:55 PM 43.7 °F 39.7 °F 32.0 °F 63% 30.14 in 10.0 mi East 6.9 mph - N/A   Overcast
2:15 PM 43.7 °F - 32.0 °F 63% 30.14 in 10.0 mi Calm Calm - N/A   Overcast
2:35 PM 43.5 °F 40.9 °F 32.5 °F 65% 30.14 in 10.0 mi SSE 4.6 mph - N/A   Overcast
2:55 PM 43.2 °F 41.5 °F 33.1 °F 68% 30.14 in 10.0 mi ESE 3.5 mph - N/A   Overcast
3:15 PM 43.3 °F 40.7 °F 32.7 °F 66% 30.14 in 10.0 mi ESE 4.6 mph - N/A   Overcast
3:35 PM 43.0 °F 40.3 °F 32.0 °F 65% 30.14 in 10.0 mi ESE 4.6 mph - N/A   Overcast
3:55 PM 42.8 °F 39.3 °F 32.0 °F 66% 30.14 in 10.0 mi SE 5.8 mph - N/A   Overcast
4:15 PM 42.8 °F 41.1 °F 31.6 °F 65% 30.14 in 10.0 mi SE 3.5 mph - N/A   Overcast
4:35 PM 42.1 °F 39.2 °F 31.8 °F 67% 30.14 in 10.0 mi ESE 4.6 mph - N/A   Overcast
4:55 PM 41.5 °F 37.8 °F 31.8 °F 68% 30.14 in 10.0 mi SE 5.8 mph - N/A   Overcast
5:15 PM 41.2 °F 38.2 °F 32.0 °F 70% 30.15 in 10.0 mi SSE 4.6 mph - N/A   Overcast
5:35 PM 40.5 °F - 32.0 °F 72% 30.15 in 10.0 mi Calm Calm - N/A   Overcast
5:55 PM 40.3 °F 38.2 °F 32.0 °F 72% 30.16 in 10.0 mi SE 3.5 mph - N/A   Overcast
6:15 PM 40.3 °F 37.1 °F 32.0 °F 72% 30.16 in 10.0 mi SE 4.6 mph - N/A   Overcast
6:35 PM 40.1 °F 36.9 °F 32.0 °F 73% 30.16 in 10.0 mi SE 4.6 mph - N/A   Overcast
6:55 PM 40.1 °F 36.9 °F 32.0 °F 73% 30.15 in 10.0 mi SSE 4.6 mph - N/A   Overcast
7:15 PM 39.4 °F 37.2 °F 32.0 °F 75% 30.15 in 10.0 mi SE 3.5 mph - N/A   Overcast
7:35 PM 39.6 °F 37.4 °F 32.0 °F 74% 30.15 in 10.0 mi SE 3.5 mph - N/A   Overcast
7:55 PM 39.2 °F 35.0 °F 32.0 °F 75% 30.15 in 10.0 mi East 5.8 mph - N/A   Overcast
8:15 PM 39.4 °F 36.1 °F 32.2 °F 75% 30.14 in 10.0 mi East 4.6 mph - N/A   Overcast
8:35 PM 38.3 °F 33.2 °F 31.8 °F 77% 30.14 in 10.0 mi East 6.9 mph - N/A   Overcast
8:55 PM 36.1 °F 32.3 °F 30.7 °F 81% 30.14 in 10.0 mi ESE 4.6 mph - N/A   Scattered Clouds
9:15 PM 35.1 °F 31.0 °F 29.8 °F 81% 30.13 in 10.0 mi ESE 4.6 mph - N/A   Clear
9:35 PM 34.3 °F 30.2 °F 29.3 °F 82% 30.13 in 10.0 mi SE 4.6 mph - N/A   Clear
9:55 PM 33.4 °F 29.1 °F 28.6 °F 82% 30.12 in 10.0 mi SE 4.6 mph - N/A   Clear
10:15 PM 33.8 °F 30.8 °F 29.1 °F 83% 30.11 in 10.0 mi ESE 3.5 mph - N/A   Clear
10:35 PM 32.4 °F - 28.0 °F 84% 30.12 in 10.0 mi Calm Calm - N/A   Clear
10:55 PM 30.6 °F - 27.0 °F 86% 30.12 in 10.0 mi Calm Calm - N/A   Scattered Clouds
11:15 PM 32.5 °F - 29.1 °F 87% 30.12 in 10.0 mi Calm Calm - N/A   Overcast
11:35 PM 30.6 °F - 26.8 °F 86% 30.11 in 10.0 mi Calm Calm - N/A   Scattered Clouds
11:55 PM 31.3 °F - 27.3 °F 85% 30.11 in 10.0 mi Calm Calm - N/A   Clear